sat.trackr.live / text

‹ back to catalog

STARLINK-31126

NORAD 58675 · 2023-211J

PAYLOAD ACTIVE UNKNOWN

§ Identity

Operator
Country
US
Launch date
2023-12-29
Launch site
AFETR
Launch vehicle
Mass (kg)
RCS (m²)

Purposes: comms

External: N2YO · Heavens-Above · Gunter

§ Orbital elements

Epoch: 2026-09-19T18:44:59.129088Z

Period
94.27 min
Inclination
43.0040°
Eccentricity
0.0001132
Mean motion
15.27579619 rev/d
Perigee alt
482.3 km
Apogee alt
483.8 km
Semi-major
6,861.2 km
B*
9.7003e-5
RAAN
68.6941°
Arg perigee
261.4121°
Mean anomaly
98.6602°
Rev number
15,215

§ Raw data

STARLINK-311261 58675U 23211J   26262.78123992  .00002408  00000+0  97003-4 0  99952 58675  43.0040  68.6941 0001132 261.4121  98.6602 15.27579619152159

JSON: /api/v1/satellites/58675 · /tle

For live sub-satellite position, see the globe view (requires WebGL).

§ Visibility from observer

Set your observer location to see the next 7 days of passes ≥ 10°. The values pass through the URL so the page stays shareable.

No JS? Fill the form by hand. The geolocation button needs JavaScript.